Flight Track Log - Related Links

Times and Time Zones

All times are in EST time to prevent confusion due to time zone crossing. See the N589H flight status page for this flight to view local times or setup timezone preferences in your user account.

Time Position Orientation Groundspeed Altitude Reporting Facility
EST Latitude Longitude Course Direction KTS MPH feet Rate Location/Type
06:40 28.1000 -80.6667 270° West 142 163 700  Level Orlando TRACON
06:40 28.1000 -80.6833 270° West 168 193 1,500 1,286 Climbing Orlando TRACON
06:41 28.0833 -80.7333 249° West 205 236 2,500 1,300 Climbing Orlando TRACON
06:42 28.0833 -80.8000 270° West 210 242 4,100 1,550 Climbing Orlando TRACON
06:43 28.0833 -80.8667 270° West 202 232 5,600 1,500 Climbing Orlando TRACON
06:44 28.1000 -80.9333 286° West 203 234 7,100 1,600 Climbing Orlando TRACON
06:45 28.1000 -80.9833 270° West 190 219 8,800 1,400 Climbing Orlando TRACON
06:46 28.1167 -81.0500 286° West 185 213 9,900 600 Climbing Orlando TRACON
06:47 28.1333 -81.1167 286° West 230 265 10,000 50 Climbing Orlando TRACON
06:48 28.1500 -81.1833 286° West 242 278 10,000  Level Orlando TRACON
06:49 28.1667 -81.2667 283° West 249 287 10,000  Level Orlando TRACON
06:50 28.1833 -81.3333 286° West 249 287 10,000  Level Orlando TRACON
06:51 28.2000 -81.4167 283° West 243 280 10,000  Level Orlando TRACON
06:52 28.2167 -81.4833 286° West 239 275 10,000  Level Orlando TRACON
06:54 28.2333 -81.6333 277° West 238 274 10,000  Level Tampa TRACON
06:55 28.2500 -81.7167 283° West 237 273 10,000  Level Tampa TRACON
06:57 28.2667 -81.7833 286° West 236 272 10,000  Level Tampa TRACON
06:58 28.2667 -81.8667 270° West 252 290 10,000  Level Tampa TRACON
06:59 28.2333 -81.9333 240° Southwest 255 293 10,000  Level Tampa TRACON
07:00 28.2000 -82.0167 246° West 253 291 10,000  Level Tampa TRACON
07:01 28.1667 -82.0833 240° Southwest 253 291 10,000  Level Tampa TRACON
07:02 28.1333 -82.1500 240° Southwest 253 291 10,000 -52 Level Tampa TRACON
07:03 28.1000 -82.2167 240° Southwest 269 310 9,900 -550 Descending Tampa TRACON
07:04 28.0333 -82.2667 214° Southwest 276 318 8,900 -1,000 Descending Tampa TRACON
07:04 27.9833 -82.3167 221° Southwest 279 321 8,000 -1,211 Descending Tampa TRACON
07:05 27.9333 -82.3833 230° Southwest 249 287 6,600 -1,857 Descending Tampa TRACON
07:07 27.9000 -82.4500 241° Southwest 228 262 4,100 -1,700 Descending Tampa TRACON
07:07 27.8833 -82.5167 254° West 222 255 3,200 -895 Descending Tampa TRACON
07:08 27.8667 -82.5833 254° West 219 252 2,400 -600 Descending Tampa TRACON
07:09 27.8500 -82.6333 249° West 180 207 2,000 -810 Descending Tampa TRACON
07:11 27.8667 -82.6833 291° West 126 145 700 -1,182 Descending Tampa TRACON
07:13 27.9000 -82.6833 310° West  Level FlightAware Approximate
07:20 27.9100 -82.6875 310° West  Level Estimated
07:21 27.9100 -82.6875 310° West  Level Estimated

Login

Don't have an account? Register now (free) for customized features, flight alerts, and more!